QPF
0.00 0.00 0.00 0.00 0.00 0.00 0.00 0.00 0.00 0.00 0.00 0.00 0.00 0.00 0.00 0.00 0.00 0.00 0.00 0.00 0.00 0.00 0.00 0.00 0.00 0.00 0.00 0.00 0.00 0.00 0.00 0.00
0.00 0.00 0.00 0.00 0.00 0.00 0.00 0.00 0.00 0.00 0.00 0.00 0.00 0.00 0.00 0.00 0.00 0.00 0.00 0.00 0.00 0.00 0.00 0.00 0.00 0.00 0.00 0.00 0.00 0.00 0.00 0.01
0.00 0.00 0.00 0.00 0.00 0.00 0.00 0.00 0.00 0.00 0.00 0.00 0.00 0.01 0.00 0.01 0.01 0.00 0.00 0.00 0.00 0.00 0.00 0.00 0.00 0.00 0.00 0.00 0.00 0.00 0.01 0.01
0.00 0.00 0.00 0.00 0.00 0.00 0.00 0.00 0.00 0.00 0.00 0.00 0.01 0.17 0.16 0.05 0.02 0.00 0.03 0.03 0.01 0.00 0.00 0.00 0.00 0.01 0.01 0.01 0.02 0.01 0.01 0.01
0.00 0.00 0.00 0.00 0.00 0.00 0.00 0.00 0.02 0.03 0.05 0.07 0.09 0.10 0.04 0.00 0.00 0.01 0.03 0.01 0.00 0.00 0.00 0.00 0.01 0.01 0.01 0.01 0.03 0.01 0.01 0.01
0.00 0.00 0.00 0.00 0.00 0.00 0.00 0.00 0.01 0.02 0.07 0.08 0.12 0.14 0.17 0.07 0.01 0.01 0.01 0.00 0.00 0.00 0.00 0.01 0.01 0.01 0.01 0.01 0.03 0.03 0.01 0.00
0.00 0.00 0.00 0.00 0.00 0.00 0.00 0.00 0.00 0.00 0.02 0.03 0.03 0.04 0.07 0.07 0.05 0.01 0.02 0.01 0.01 0.01 0.01 0.01 0.01 0.01 0.01 0.01 0.02 0.02 0.01 0.00
0.00 0.00 0.00 0.00 0.00 0.00 0.00 0.00 0.00 0.00 0.00 0.00 0.01 0.01 0.01 0.00 0.00 0.01 0.02 0.05 0.04 0.03 0.04 0.03 0.02 0.01 0.01 0.01 0.01 0.01 0.01 0.00
0.00 0.00 0.00 0.00 0.00 0.00 0.00 0.00 0.00 0.00 0.00 0.00 0.00 0.00 0.00 0.00 0.00 0.00 0.00 0.01 0.01 0.02 0.02 0.03 0.02 0.01 0.01 0.01 0.01 0.00 0.01 0.01
0.00 0.00 0.00 0.00 0.00 0.00 0.00 0.00 0.00 0.00 0.00 0.00 0.00 0.00 0.00 0.00 0.00 0.00 0.00 0.00 0.00 0.00 0.00 0.01 0.01 0.01 0.02 0.02 0.02 0.01 0.01 0.01
0.00 0.00 0.00 0.00 0.00 0.00 0.00 0.00 0.00 0.00 0.00 0.00 0.00 0.00 0.00 0.00 0.00 0.00 0.00 0.00 0.00 0.00 0.00 0.00 0.00 0.00 0.01 0.02 0.02 0.01 0.01 0.01
0.00 0.00 0.00 0.00 0.00 0.00 0.00 0.00 0.00 0.00 0.00 0.00 0.00 0.00 0.00 0.00 0.00 0.00 0.00 0.00 0.00 0.00 0.00 0.01 0.01 0.00 0.01 0.01 0.01 0.02 0.01 0.01
0.00 0.00 0.00 0.00 0.00 0.00 0.00 0.00 0.00 0.00 0.00 0.00 0.00 0.00 0.00 0.00 0.00 0.00 0.00 0.00 0.00 0.00 0.00 0.00 0.01 0.01 0.00 0.01 0.02 0.02 0.01 0.01
0.01 0.00 0.00 0.00 0.00 0.00 0.00 0.00 0.00 0.00 0.00 0.00 0.00 0.00 0.00 0.00 0.00 0.00 0.00 0.00 0.01 0.00 0.00 0.01 0.01 0.01 0.01 0.00 0.00 0.01 0.01 0.01
0.06 0.05 0.03 0.00 0.00 0.00 0.00 0.00 0.00 0.00 0.00 0.00 0.00 0.00 0.00 0.00 0.00 0.00 0.01 0.01 0.01 0.00 0.00 0.01 0.01 0.01 0.01 0.01 0.01 0.00 0.00 0.00
0.05 0.01 0.02 0.01 0.00 0.00 0.00 0.00 0.00 0.00 0.00 0.00 0.00 0.00 0.00 0.00 0.00 0.00 0.00 0.01 0.01 0.00 0.00 0.01 0.01 0.02 0.02 0.01 0.01 0.00 0.00 0.00
0.01 0.00 0.00 0.00 0.00 0.00 0.00 0.00 0.00 0.00 0.00 0.00 0.00 0.00 0.00 0.00 0.00 0.00 0.00 0.00 0.00 0.01 0.01 0.01 0.04 0.03 0.02 0.03 0.01 0.00 0.00 0.00
0.00 0.00 0.00 0.00 0.00 0.00 0.00 0.00 0.00 0.00 0.00 0.00 0.00 0.00 0.00 0.00 0.00 0.00 0.00 0.00 0.01 0.01 0.02 0.01 0.02 0.04 0.05 0.02 0.00 0.00 0.00 0.00
0.00 0.00 0.00 0.00 0.00 0.00 0.00 0.00 0.00 0.00 0.00 0.00 0.00 0.00 0.00 0.00 0.00 0.00 0.01 0.01 0.02 0.02 0.03 0.05 0.03 0.02 0.06 0.03 0.01 0.00 0.00 0.00
MSLP
1000.35 1000.90 1001.13 1001.47 1002.17 1002.72 1003.25 1003.63 1004.12 1004.58 1005.54 1006.60 1007.18 1007.70 1008.26 1008.55 1008.86 1009.16 1009.65 1010.12 1010.44 1010.86 1011.49 1012.04 1012.49 1013.25 1013.93 1014.45 1014.85 1015.33 1015.61 1016.10
999.78 999.70 1000.34 1000.97 1001.49 1002.12 1002.68 1003.24 1003.31 1004.19 1004.93 1005.78 1006.72 1007.01 1007.49 1008.16 1008.41 1008.59 1009.27 1009.69 1010.10 1010.63 1011.18 1011.75 1012.27 1012.80 1013.39 1014.04 1014.62 1015.14 1015.52 1015.86
999.54 999.52 999.73 1000.20 1001.13 1001.25 1001.73 1002.12 1002.69 1003.10 1003.69 1004.17 1005.03 1005.98 1006.71 1007.19 1007.99 1008.26 1008.40 1009.08 1009.59 1010.16 1010.63 1011.24 1011.77 1012.40 1013.01 1013.44 1013.84 1014.58 1015.08 1015.35
999.01 999.39 999.61 999.91 1000.44 1000.94 1001.09 1001.33 1002.06 1002.67 1003.28 1004.26 1005.15 1006.00 1006.84 1007.40 1007.93 1008.11 1008.16 1008.70 1009.12 1009.51 1010.02 1010.59 1011.24 1011.62 1012.23 1012.66 1013.17 1013.79 1014.46 1014.94
998.83 999.76 1000.32 1000.83 1001.57 1001.22 1001.62 1002.19 1002.87 1003.43 1003.85 1004.73 1005.10 1005.66 1006.40 1006.36 1006.65 1007.15 1007.65 1008.17 1008.68 1008.92 1009.44 1009.89 1010.52 1011.11 1011.65 1011.94 1012.49 1012.99 1013.53 1014.26
999.70 1000.57 1001.35 1002.09 1002.29 1002.26 1002.75 1003.31 1003.85 1004.13 1004.31 1005.07 1005.39 1006.05 1006.73 1006.74 1007.13 1007.33 1007.52 1007.72 1008.18 1008.64 1008.98 1009.45 1009.76 1010.37 1010.94 1011.20 1011.89 1012.45 1012.82 1013.34
1000.77 1001.34 1002.10 1003.12 1002.94 1003.48 1003.77 1004.41 1005.36 1005.42 1005.33 1005.71 1005.90 1005.83 1007.34 1007.47 1007.48 1007.48 1007.49 1007.77 1007.95 1008.20 1008.54 1008.84 1008.94 1009.38 1010.11 1010.64 1010.96 1011.59 1012.07 1012.52
1002.66 1002.81 1003.39 1004.27 1004.25 1004.79 1005.02 1005.61 1006.10 1006.43 1006.27 1006.60 1006.87 1007.19 1007.53 1007.43 1007.59 1007.62 1007.54 1007.60 1007.68 1007.63 1008.00 1008.16 1008.55 1008.65 1009.25 1009.80 1010.04 1010.57 1011.31 1011.91
1004.45 1005.00 1004.87 1005.38 1005.24 1005.65 1005.96 1006.21 1006.53 1006.85 1006.86 1007.26 1007.66 1008.05 1008.26 1008.16 1007.81 1007.48 1007.38 1007.25 1007.11 1007.07 1007.21 1007.56 1007.85 1008.23 1008.73 1009.31 1009.60 1009.82 1010.32 1011.07
1006.05 1006.13 1006.66 1006.38 1006.48 1007.17 1007.52 1007.55 1007.95 1008.02 1008.43 1008.73 1008.61 1008.53 1008.54 1008.27 1008.01 1007.78 1007.51 1006.88 1006.50 1006.50 1006.67 1006.94 1006.93 1007.13 1007.89 1008.50 1008.87 1009.16 1009.77 1010.35
1007.14 1007.17 1007.70 1008.11 1008.34 1008.58 1008.98 1008.66 1009.20 1009.49 1009.61 1009.70 1009.90 1009.42 1008.97 1008.95 1008.33 1007.74 1007.28 1006.83 1006.14 1005.85 1005.78 1006.11 1006.35 1006.50 1007.04 1007.64 1008.02 1008.44 1009.18 1009.78
1008.64 1008.54 1009.13 1009.63 1009.64 1009.85 1009.56 1009.17 1009.11 1009.18 1009.39 1009.62 1009.53 1009.08 1009.10 1008.65 1007.83 1007.11 1006.63 1006.19 1005.81 1005.11 1004.88 1005.10 1005.45 1005.79 1006.35 1006.69 1007.25 1007.77 1008.34 1009.02
1010.14 1009.83 1009.58 1010.06 1010.90 1011.30 1011.34 1010.32 1009.71 1009.63 1009.32 1008.93 1008.79 1008.18 1007.88 1007.64 1007.11 1007.04 1006.22 1005.34 1004.71 1004.19 1003.94 1004.20 1004.47 1005.01 1005.45 1005.90 1006.46 1006.92 1007.55 1008.17
1011.09 1011.38 1011.90 1012.74 1012.66 1012.60 1012.36 1011.68 1011.36 1010.63 1010.09 1009.87 1009.42 1008.43 1008.13 1007.70 1007.06 1006.40 1005.38 1004.64 1003.47 1002.98 1003.02 1003.21 1003.38 1004.10 1004.59 1005.04 1005.51 1006.19 1006.64 1007.28
1012.20 1012.18 1012.49 1012.71 1012.84 1012.74 1012.32 1011.29 1011.47 1011.20 1010.88 1010.15 1009.24 1008.45 1008.34 1007.36 1006.59 1005.96 1004.74 1003.89 1002.76 1002.15 1002.26 1002.35 1002.50 1003.10 1003.71 1004.20 1004.74 1005.52 1006.08 1006.61
1012.01 1012.58 1012.88 1013.45 1012.98 1013.35 1013.48 1013.30 1011.77 1011.61 1011.07 1010.29 1009.96 1009.36 1008.39 1007.59 1006.90 1005.57 1004.46 1003.47 1002.17 1001.53 1001.62 1001.67 1001.97 1002.53 1002.97 1003.59 1004.04 1004.83 1005.55 1006.20
1013.94 1014.69 1015.02 1015.48 1014.80 1014.70 1014.06 1012.69 1012.61 1012.37 1011.98 1011.45 1010.80 1009.94 1008.73 1007.68 1006.40 1005.05 1003.95 1002.92 1001.68 1001.05 1001.01 1001.19 1001.50 1001.90 1002.40 1002.90 1003.41 1004.36 1005.20 1005.64
1015.99 1016.02 1016.31 1016.08 1015.78 1015.51 1014.85 1014.01 1013.56 1012.98 1012.27 1011.61 1010.72 1009.68 1008.61 1007.35 1006.09 1005.04 1003.68 1002.70 1001.32 1000.63 1000.50 1000.67 1001.00 1001.32 1001.96 1002.64 1003.34 1004.03 1004.61 1005.13
1017.07 1017.20 1016.72 1016.25 1015.94 1015.42 1014.89 1014.44 1014.01 1013.46 1012.76 1011.83 1010.80 1009.77 1008.58 1007.29 1006.07 1004.90 1003.48 1002.49 1001.24 1000.03 1000.08 1000.30 1000.69 1001.01 1001.64 1002.29 1003.13 1003.69 1004.32 1004.86
Thickness
5709 5707 5711 5715 5721 5723 5721 5721 5720 5719 5713 5704 5701 5700 5698 5696 5696 5694 5689 5686 5684 5681 5677 5674 5670 5665 5659 5654 5651 5646 5642 5636
5703 5711 5709 5707 5711 5714 5713 5714 5719 5714 5710 5703 5697 5698 5697 5692 5693 5690 5685 5682 5680 5678 5674 5669 5666 5663 5657 5652 5646 5641 5637 5633
5690 5701 5705 5704 5701 5710 5713 5713 5713 5714 5714 5713 5705 5699 5696 5693 5687 5687 5687 5682 5677 5674 5670 5666 5664 5660 5654 5651 5647 5639 5635 5632
5685 5689 5695 5698 5697 5697 5708 5712 5709 5706 5706 5702 5697 5691 5683 5682 5680 5678 5680 5675 5673 5671 5669 5666 5661 5660 5654 5651 5646 5640 5633 5629
5674 5665 5668 5672 5675 5686 5687 5691 5689 5689 5690 5689 5690 5686 5676 5682 5679 5678 5675 5674 5671 5668 5667 5665 5660 5656 5652 5650 5645 5640 5635 5627
5648 5648 5648 5651 5662 5669 5667 5671 5672 5674 5675 5673 5676 5673 5665 5662 5665 5668 5670 5671 5668 5664 5663 5661 5659 5655 5650 5649 5642 5637 5634 5629
5632 5635 5636 5635 5647 5649 5652 5652 5650 5653 5659 5658 5658 5660 5648 5648 5651 5656 5659 5660 5659 5658 5657 5656 5658 5655 5649 5646 5642 5636 5633 5629
5609 5615 5617 5618 5626 5629 5634 5633 5632 5634 5640 5640 5640 5639 5637 5641 5645 5649 5652 5650 5651 5655 5653 5653 5651 5652 5648 5643 5642 5638 5632 5627
5584 5588 5596 5598 5606 5610 5614 5617 5619 5620 5624 5624 5623 5621 5623 5625 5632 5639 5644 5645 5647 5649 5649 5649 5649 5646 5643 5639 5637 5637 5634 5627
5564 5572 5574 5581 5587 5588 5590 5596 5597 5599 5599 5599 5603 5607 5609 5614 5619 5624 5630 5637 5642 5644 5643 5644 5647 5647 5641 5637 5634 5633 5630 5625
5551 5557 5557 5559 5564 5568 5570 5576 5575 5577 5579 5580 5582 5588 5594 5597 5604 5611 5620 5627 5635 5638 5640 5642 5642 5643 5639 5635 5633 5630 5625 5621
5532 5539 5539 5539 5546 5550 5557 5565 5568 5571 5572 5572 5575 5580 5582 5586 5595 5604 5612 5620 5625 5632 5637 5639 5638 5639 5635 5634 5630 5627 5624 5618
5514 5523 5531 5531 5527 5527 5529 5541 5552 5557 5563 5569 5572 5580 5582 5582 5587 5590 5601 5612 5622 5628 5635 5636 5636 5635 5632 5631 5629 5627 5622 5617
5501 5504 5504 5501 5506 5511 5518 5528 5533 5540 5546 5549 5555 5563 5567 5571 5576 5583 5594 5604 5619 5626 5630 5633 5635 5632 5630 5629 5627 5624 5621 5616
5488 5493 5495 5498 5500 5503 5510 5521 5522 5526 5530 5537 5546 5552 5553 5563 5568 5574 5587 5597 5611 5620 5624 5629 5631 5629 5626 5624 5623 5619 5616 5613
5488 5486 5486 5482 5491 5491 5493 5497 5513 5515 5519 5526 5529 5533 5541 5548 5554 5567 5578 5588 5604 5614 5618 5622 5624 5622 5621 5619 5619 5615 5611 5607
5468 5462 5464 5461 5470 5473 5483 5497 5498 5499 5502 5506 5512 5519 5529 5537 5550 5563 5574 5582 5598 5606 5612 5615 5616 5616 5612 5612 5613 5609 5603 5602
5447 5450 5448 5453 5457 5461 5469 5478 5482 5486 5490 5495 5502 5511 5520 5531 5543 5553 5566 5574 5593 5602 5607 5609 5610 5610 5604 5602 5599 5600 5599 5597
5433 5434 5442 5448 5453 5458 5464 5467 5470 5474 5478 5484 5492 5500 5510 5521 5532 5543 5556 5566 5582 5598 5600 5601 5602 5602 5595 5592 5589 5592 5591 5589